Temp
10 7 7 8 8 8 8 8 8 8 9 9 9 10 10 12 12 11 11 11 11 8 6 7 7 7 7 8 9 10 11 11 12 12 13 14 14 14 14 14 14 14 13 13
8 7 8 9 8 8 8 8 7 8 9 10 8 8 9 9 10 7 5 9 7 5 5 5 5 6 7 7 7 8 10 10 11 11 12 13 14 14 13 13 13 13 13 13
7 10 9 9 8 8 8 7 8 8 9 8 7 8 9 9 7 6 4 3 3 3 3 4 4 3 4 4 5 5 6 8 8 10 10 12 12 13 13 13 13 12 12 12
8 10 10 9 9 8 7 8 8 8 8 6 8 6 7 7 6 7 4 3 2 1 1 1 2 2 2 2 2 3 4 7 4 6 7 10 11 13 14 14 13 12 11 11
9 9 9 8 9 8 8 9 9 8 7 6 7 6 6 5 5 6 4 2 1 0 -0 -0 -1 -0 -0 0 2 3 3 5 5 5 4 7 7 11 10 11 10 11 10 10
8 9 9 8 9 8 8 8 7 5 4 5 7 7 5 5 4 3 2 0 -0 0 0 0 0 0 -0 -0 2 3 3 4 6 6 4 5 6 8 9 9 10 10 10 9
9 8 9 10 9 7 8 8 6 5 5 6 7 6 5 4 3 3 1 0 1 2 2 2 1 1 1 0 1 3 3 3 3 5 3 3 3 5 5 6 8 7 8 8
6 8 7 8 9 7 5 7 8 7 5 6 6 5 6 4 2 2 1 0 -0 -0 -0 0 1 2 2 3 2 2 3 3 2 3 2 0 2 3 4 5 5 5 5 5
7 8 8 8 8 8 6 7 8 6 5 5 5 5 4 4 3 2 1 0 -0 -1 -1 -1 -1 -1 -1 -0 -0 0 1 1 -0 -0 -0 -0 0 1 3 4 3 3 4 4
9 8 9 8 9 8 7 7 6 5 7 7 6 6 4 3 3 1 1 -0 -1 -2 -2 -1 -1 -1 -2 -2 -2 -2 -1 -0 -2 -1 -1 -1 -0 1 1 2 2 2 2 2
8 8 9 8 8 6 6 6 6 6 6 6 6 5 2 4 3 1 0 -0 -1 -2 -2 -3 -3 -3 -3 -3 -3 -2 -2 -2 -2 -3 -3 -3 -2 -1 -1 -1 -1 -1 -0 -0
7 7 7 8 8 8 8 7 7 6 5 4 2 3 5 4 3 2 1 -0 -2 -2 -3 -4 -4 -4 -4 -4 -3 -3 -2 -2 -2 -3 -2 -2 -2 -2 -2 -2 -2 -2 -2 -2
6 5 6 5 6 6 7 7 8 7 6 6 4 5 5 5 4 3 1 -1 -2 -3 -4 -4 -4 -5 -6 -5 -5 -5 -4 -3 -3 -3 -2 -2 -2 -2 -2 -3 -3 -2 -2 -2
7 5 7 7 7 6 5 6 7 7 6 6 6 4 4 4 4 1 -1 -2 -3 -4 -4 -5 -6 -6 -6 -6 -5 -4 -4 -4 -3 -3 -3 -3 -3 -3 -3 -3 -3 -3 -3 -3
4 6 5 5 6 6 5 6 6 6 6 6 6 6 5 5 3 -1 -2 -3 -3 -4 -5 -6 -6 -6 -6 -6 -5 -5 -5 -4 -4 -3 -3 -3 -3 -3 -3 -3 -4 -4 -4 -4
3 4 4 4 5 6 5 5 5 5 5 5 5 5 5 2 -0 -2 -2 -3 -4 -5 -5 -6 -6 -6 -7 -7 -6 -5 -5 -4 -4 -4 -4 -4 -3 -3 -3 -3 -3 -3 -3 -3
3 3 3 5 5 4 5 5 6 6 4 6 6 5 1 -0 -1 -2 -3 -3 -4 -5 -6 -6 -6 -6 -7 -7 -6 -6 -6 -5 -5 -5 -5 -4 -4 -4 -4 -3 -3 -3 -3 -3
3 3 3 4 4 5 5 3 5 6 4 3 3 2 1 -0 -2 -3 -3 -3 -5 -6 -7 -7 -7 -7 -7 -7 -7 -7 -6 -6 -6 -6 -5 -4 -4 -4 -4 -4 -4 -4 -4 -4
3 2 3 4 4 4 4 3 2 3 3 1 1 -0 -3 -4 -4 -5 -4 -4 -5 -6 -7 -7 -6 -6 -7 -6 -6 -6 -7 -7 -6 -6 -5 -5 -5 -5 -4 -4 -4 -5 -4 -4
3 3 4 2 1 2 1 3 3 3 2 -1 -0 -2 -3 -3 -2 -6 -5 -5 -6 -6 -6 -6 -6 -6 -6 -6 -7 -7 -7 -7 -7 -7 -7 -6 -6 -5 -5 -6 -5 -5 -5 -5
3 2 3 2 2 2 2 3 4 2 2 -1 -1 -2 -4 -4 -4 -4 -5 -6 -6 -7 -7 -7 -7 -7 -7 -7 -7 -7 -7 -8 -8 -8 -7 -7 -7 -6 -6 -6 -5 -5 -5 -6
3 3 2 2 2 1 2 2 2 -1 -3 -3 -3 -4 -5 -5 -5 -5 -6 -7 -7 -7 -7 -7 -7 -7 -7 -8 -7 -7 -8 -9 -9 -8 -8 -8 -7 -6 -7 -7 -6 -7 -6 -6
2 -0 -1 1 -0 -3 -1 -1 -0 -1 -1 -2 -2 -4 -3 -5 -5 -6 -7 -7 -7 -7 -7 -8 -8 -7 -8 -8 -8 -8 -8 -9 -8 -8 -8 -8 -8 -8 -8 -7 -8 -8 -8 -8
1 1 -2 -1 -2 -3 -3 -2 -1 -1 -1 -1 -2 -3 -3 -4 -5 -6 -7 -7 -7 -7 -8 -8 -8 -8 -8 -8 -8 -8 -9 -9 -8 -8 -8 -9 -9 -9 -10 -10 -10 -10 -11 -11
1 0 -1 -2 -2 -2 -3 -2 -2 -2 -2 -3 -4 -4 -4 -4 -6 -6 -7 -7 -7 -8 -8 -8 -8 -8 -8 -8 -8 -9 -9 -8 -8 -8 -8 -9 -10 -11 -11 -11 -12 -12 -13 -13
1 -0 0 0 -0 -1 -2 -3 -3 -3 -4 -4 -5 -6 -6 -5 -6 -7 -7 -8 -8 -8 -8 -8 -8 -8 -8 -8 -9 -9 -8 -8 -8 -8 -9 -11 -11 -11 -11 -11 -12 -12 -13 -14
Height
1491 1499 1502 1492 1495 1501 1504 1505 1506 1505 1498 1497 1491 1492 1491 1482 1480 1478 1473 1470 1468 1467 1468 1468 1467 1467 1467 1467 1465 1465 1463 1463 1464 1465 1465 1464 1462 1462 1463 1463 1463 1462 1462 1461
1492 1496 1490 1492 1495 1500 1503 1506 1508 1502 1495 1495 1488 1489 1484 1481 1486 1484 1477 1468 1469 1471 1471 1471 1470 1469 1468 1468 1466 1465 1464 1463 1464 1464 1463 1461 1460 1459 1458 1458 1457 1458 1457 1456
1488 1485 1482 1489 1494 1498 1501 1505 1503 1503 1496 1494 1491 1486 1483 1483 1481 1480 1479 1478 1475 1476 1474 1473 1473 1473 1472 1470 1467 1466 1465 1461 1462 1461 1462 1458 1458 1455 1454 1453 1452 1452 1452 1451
1485 1479 1484 1490 1490 1493 1500 1494 1498 1499 1502 1509 1496 1500 1483 1487 1487 1483 1485 1483 1484 1483 1481 1478 1476 1476 1474 1474 1472 1469 1467 1460 1467 1458 1462 1457 1456 1452 1449 1447 1447 1447 1446 1446
1483 1480 1483 1489 1485 1488 1492 1489 1493 1498 1504 1506 1502 1509 1485 1488 1490 1488 1490 1489 1486 1485 1484 1483 1481 1481 1479 1477 1473 1469 1469 1466 1468 1461 1461 1455 1456 1446 1445 1444 1443 1442 1441 1440
1479 1479 1480 1482 1482 1484 1487 1491 1495 1503 1509 1507 1493 1496 1487 1490 1495 1494 1495 1493 1490 1487 1486 1486 1485 1483 1481 1481 1475 1471 1470 1471 1464 1461 1461 1457 1452 1445 1444 1441 1437 1435 1435 1434
1475 1476 1476 1477 1482 1485 1486 1491 1505 1509 1507 1498 1489 1496 1488 1494 1494 1494 1494 1492 1489 1486 1485 1485 1484 1483 1483 1480 1477 1470 1469 1466 1465 1464 1462 1458 1455 1445 1443 1436 1432 1431 1430 1428
1479 1476 1473 1472 1473 1481 1489 1488 1490 1493 1503 1495 1490 1495 1480 1493 1495 1496 1496 1494 1491 1489 1487 1486 1484 1480 1479 1479 1478 1473 1470 1465 1465 1459 1461 1460 1451 1445 1440 1435 1432 1430 1427 1423
1474 1471 1465 1467 1469 1473 1487 1485 1484 1492 1497 1496 1488 1488 1490 1489 1492 1493 1493 1492 1489 1489 1487 1487 1487 1481 1480 1476 1473 1470 1466 1464 1463 1465 1462 1457 1449 1443 1436 1433 1430 1427 1425 1421
1458 1467 1461 1465 1468 1473 1475 1478 1492 1496 1487 1484 1480 1479 1479 1482 1485 1488 1488 1487 1489 1490 1489 1488 1488 1482 1481 1477 1475 1469 1465 1464 1465 1462 1458 1453 1447 1440 1436 1433 1429 1427 1422 1418
1454 1461 1463 1464 1466 1470 1477 1479 1478 1482 1487 1484 1479 1476 1468 1470 1476 1480 1482 1482 1486 1488 1489 1488 1485 1482 1479 1478 1473 1468 1465 1464 1463 1460 1456 1451 1444 1440 1437 1432 1428 1424 1420 1418
1450 1457 1457 1457 1458 1458 1462 1466 1469 1477 1484 1483 1492 1477 1464 1467 1473 1479 1482 1483 1486 1487 1488 1487 1485 1481 1478 1475 1472 1471 1467 1463 1462 1460 1455 1449 1446 1441 1436 1433 1429 1425 1421 1417
1451 1461 1463 1468 1465 1463 1460 1457 1456 1461 1469 1463 1478 1463 1464 1467 1471 1476 1479 1482 1485 1486 1486 1486 1483 1481 1479 1476 1475 1472 1468 1466 1463 1461 1456 1450 1447 1442 1437 1435 1431 1426 1420 1416
1447 1453 1450 1451 1451 1457 1462 1456 1453 1456 1461 1452 1450 1459 1465 1464 1466 1472 1475 1479 1484 1485 1485 1484 1484 1482 1481 1478 1475 1472 1470 1466 1464 1461 1457 1453 1449 1445 1440 1439 1434 1428 1423 1418
1446 1448 1453 1448 1448 1451 1453 1452 1449 1449 1448 1450 1449 1447 1451 1455 1460 1469 1472 1477 1482 1483 1484 1483 1484 1483 1481 1479 1476 1474 1472 1470 1468 1464 1461 1453 1451 1449 1446 1445 1440 1433 1428 1421
1446 1450 1451 1449 1446 1447 1450 1445 1446 1446 1445 1445 1446 1446 1444 1454 1462 1467 1471 1474 1478 1481 1482 1482 1482 1482 1480 1479 1477 1474 1472 1470 1468 1465 1460 1458 1456 1454 1451 1447 1441 1437 1432 1424
1446 1449 1450 1443 1444 1449 1446 1432 1434 1435 1437 1434 1437 1437 1448 1455 1459 1463 1469 1473 1476 1479 1480 1482 1482 1482 1481 1480 1478 1476 1476 1473 1469 1465 1463 1461 1460 1456 1452 1448 1443 1439 1433 1427
1440 1446 1445 1441 1445 1440 1429 1431 1427 1426 1429 1432 1434 1437 1443 1449 1456 1462 1468 1470 1474 1476 1478 1480 1480 1480 1480 1480 1479 1479 1477 1475 1472 1470 1467 1464 1461 1457 1454 1450 1446 1440 1436 1432
1426 1438 1441 1442 1440 1432 1430 1429 1431 1429 1428 1431 1436 1444 1449 1452 1459 1466 1468 1470 1472 1475 1477 1478 1478 1480 1481 1481 1480 1480 1479 1477 1475 1472 1468 1467 1463 1458 1456 1451 1448 1445 1437 1433
1426 1428 1435 1444 1448 1446 1433 1424 1424 1424 1432 1427 1432 1440 1447 1451 1458 1463 1466 1469 1472 1475 1476 1478 1479 1481 1482 1483 1483 1483 1481 1480 1477 1473 1471 1469 1465 1462 1459 1455 1450 1446 1440 1435
1426 1432 1430 1436 1438 1432 1424 1423 1424 1438 1432 1425 1429 1436 1443 1448 1451 1454 1463 1468 1472 1474 1476 1479 1481 1483 1484 1484 1484 1483 1482 1480 1479 1477 1475 1471 1468 1464 1460 1456 1451 1447 1443 1440
1417 1425 1428 1431 1435 1439 1420 1424 1427 1425 1424 1426 1431 1437 1443 1448 1451 1456 1462 1467 1471 1474 1477 1480 1482 1483 1484 1485 1485 1484 1482 1482 1480 1478 1475 1472 1469 1465 1462 1458 1453 1449 1444 1439
1417 1415 1425 1422 1425 1421 1419 1420 1420 1421 1422 1427 1431 1436 1441 1446 1452 1457 1462 1467 1471 1474 1477 1479 1482 1483 1484 1485 1485 1485 1483 1482 1481 1479 1475 1472 1470 1467 1463 1458 1453 1448 1444 1439
1408 1409 1418 1418 1419 1419 1419 1420 1421 1422 1424 1427 1431 1435 1440 1444 1451 1456 1462 1466 1471 1474 1477 1479 1481 1483 1484 1484 1485 1484 1484 1483 1481 1478 1476 1474 1471 1468 1464 1459 1455 1450 1446 1443
1404 1407 1412 1417 1418 1419 1419 1420 1421 1422 1425 1427 1431 1434 1439 1444 1451 1456 1462 1467 1471 1474 1476 1479 1481 1483 1484 1484 1484 1484 1484 1483 1480 1479 1477 1475 1473 1470 1466 1462 1458 1455 1452 1450
1398 1402 1405 1405 1402 1406 1408 1415 1419 1422 1425 1427 1430 1435 1442 1446 1450 1457 1462 1467 1470 1473 1476 1479 1481 1483 1483 1484 1484 1484 1483 1482 1481 1480 1478 1477 1475 1472 1469 1466 1463 1460 1457 1454
Wind_Speed
7 4 8 13 7 4 4 3 3 4 10 7 11 13 9 18 20 23 27 23 13 4 6 6 9 8 6 5 5 5 7 7 7 10 11 12 12 13 14 15 17 19 20 22
4 5 10 4 5 5 6 2 6 6 7 6 10 10 9 6 9 17 22 23 11 15 13 13 13 10 9 7 5 2 1 2 2 3 5 7 9 10 9 9 12 15 17 20
6 4 5 7 4 6 5 5 4 7 5 5 8 5 5 5 22 24 29 30 25 18 16 15 16 17 14 13 12 11 8 4 3 1 2 4 6 7 8 10 11 11 14 17
5 6 4 3 5 6 3 6 6 5 1 3 3 6 4 3 12 14 20 24 25 23 20 19 18 19 18 18 15 14 14 15 16 10 8 4 4 6 8 11 15 15 13 15
6 3 4 6 11 5 7 4 4 4 3 2 2 2 3 6 10 12 18 20 22 23 21 21 19 20 21 21 17 16 16 9 19 20 16 13 11 10 11 12 13 16 15 15
7 1 6 7 2 6 5 4 3 3 3 4 8 8 4 4 3 9 13 17 17 19 20 22 24 23 23 22 19 18 17 14 12 18 19 18 17 13 14 15 15 16 17 15
1 8 4 3 3 3 3 5 3 3 1 5 1 2 2 3 4 8 10 10 12 12 12 14 18 21 24 25 23 21 21 22 19 18 17 17 16 15 16 17 18 19 19 17
6 3 7 5 16 7 6 8 5 5 3 3 2 5 2 6 8 6 7 7 8 11 12 14 14 14 14 17 19 13 12 15 19 20 19 18 16 15 16 17 17 19 20 19
5 4 2 4 3 9 4 6 2 1 1 1 4 1 3 8 7 6 7 5 6 5 8 10 11 12 13 13 14 15 16 16 17 16 17 18 18 17 18 17 18 18 19 19
5 1 5 4 6 4 6 7 3 1 3 5 4 4 5 14 12 11 10 8 3 3 6 9 11 12 13 13 12 13 13 16 16 17 18 19 19 18 17 16 16 17 19 19
5 5 2 6 6 9 3 3 2 3 3 4 2 5 4 17 16 14 12 10 7 2 4 8 11 11 11 12 13 13 14 14 14 16 16 17 20 19 20 20 20 20 19 19
6 5 9 13 3 5 3 5 6 4 4 4 3 5 4 10 12 15 12 10 7 2 3 8 11 11 11 13 12 13 14 15 15 16 16 18 17 19 21 22 22 21 20 21
6 1 1 5 3 2 6 7 10 4 2 15 5 4 7 13 13 16 16 12 8 4 2 8 8 11 11 12 11 12 14 13 14 15 16 19 21 21 23 22 22 22 23 22
7 5 6 8 4 3 3 7 10 12 5 4 11 7 12 13 14 16 18 17 10 5 3 7 7 9 10 11 12 13 13 15 15 17 19 20 22 24 25 24 24 25 25 25
4 8 5 5 5 5 5 6 7 16 17 9 6 10 15 16 16 18 22 17 10 5 3 6 6 8 9 11 12 12 12 12 13 15 18 22 22 22 22 22 24 26 27 30
2 3 4 4 7 10 9 11 9 12 10 7 7 6 3 18 19 19 18 16 11 7 4 5 6 7 10 12 12 13 12 13 14 16 19 19 18 19 20 21 24 25 27 29
5 5 4 6 4 2 8 17 13 6 4 5 13 7 12 13 16 18 18 14 11 8 6 4 5 6 7 9 9 12 13 13 15 18 18 17 16 18 20 21 22 24 28 29
6 5 3 2 3 10 1 4 5 8 4 4 3 14 16 16 17 19 16 15 13 11 9 6 5 4 5 5 8 10 13 13 17 16 16 17 18 18 19 20 22 25 27 29
7 5 3 3 4 4 3 4 5 7 6 5 11 12 19 24 18 9 12 10 11 11 11 8 5 5 4 3 4 6 8 12 13 15 17 17 19 19 19 21 23 24 27 29
5 4 5 3 4 6 5 1 3 2 6 9 15 16 19 20 7 4 17 15 14 12 9 8 6 4 2 2 2 4 7 9 13 14 15 16 18 19 20 21 22 24 28 30
4 3 8 4 4 6 4 5 6 5 5 16 24 25 24 7 4 22 22 18 15 12 10 9 8 6 5 5 4 4 7 10 11 11 13 15 18 20 22 23 23 25 27 29
8 7 4 3 3 7 6 4 6 3 5 19 22 25 23 14 20 27 24 22 17 14 11 10 9 8 7 5 3 5 10 9 8 11 14 17 18 20 23 24 26 28 30 33
4 6 5 7 5 1 2 1 4 9 17 18 25 26 27 23 28 27 25 21 17 13 11 10 10 9 8 6 5 6 10 8 9 11 15 17 19 21 24 26 29 31 33 35
1 2 3 3 2 3 4 8 11 10 15 18 20 25 26 28 27 27 25 23 17 12 12 12 11 10 10 9 7 8 8 9 9 12 15 16 18 20 23 26 29 31 34 34
3 7 5 1 2 5 7 10 15 14 14 16 18 23 27 28 29 28 25 20 16 14 14 13 13 12 11 10 8 8 7 8 11 13 14 15 16 18 21 24 26 27 28 28
4 5 5 5 13 5 8 22 19 18 18 19 23 26 26 26 30 27 24 19 16 16 15 15 13 11 11 10 10 9 9 9 10 11 13 13 15 17 18 20 21 22 22 23
Wind_Direction
175 143 212 221 187 144 107 158 240 265 279 300 276 290 297 287 298 304 316 321 326 85 89 98 107 114 114 129 147 167 177 192 205 212 219 222 227 240 252 261 265 267 271 270
95 238 227 131 163 196 224 259 270 283 272 299 292 306 272 278 1 32 16 4 104 98 96 82 74 72 66 57 57 56 100 166 205 210 215 225 242 239 242 260 273 277 276 277
156 226 160 168 170 205 186 197 207 247 314 292 324 316 84 69 35 28 38 52 70 78 82 67 54 44 42 36 39 29 14 36 29 153 236 215 240 264 276 278 280 278 283 285
224 247 138 145 222 181 253 205 210 246 303 272 24 288 95 17 29 28 50 53 51 52 53 52 49 40 34 29 22 26 27 13 0 25 3 358 303 281 288 292 294 294 294 292
239 198 194 196 232 143 228 174 181 154 200 349 226 273 186 57 18 26 59 55 53 54 50 41 36 27 27 24 30 30 15 19 345 4 0 357 336 338 317 307 301 297 299 297
210 131 165 199 166 173 127 94 73 77 126 241 213 188 303 37 14 71 64 64 66 63 51 42 33 27 19 16 21 19 21 7 359 344 352 350 344 339 327 318 316 312 307 307
170 243 227 161 110 48 131 122 306 320 210 232 126 178 304 110 116 130 127 114 93 76 60 43 34 27 15 9 6 4 357 360 358 346 346 349 343 344 336 334 329 325 319 320
170 292 157 203 213 180 180 176 207 246 210 234 324 231 237 146 134 131 113 102 86 71 63 57 49 45 30 6 351 2 355 352 347 350 347 341 347 347 342 338 333 328 327 328
164 258 147 172 134 147 189 203 193 258 167 268 212 223 185 170 159 169 151 143 111 71 50 25 11 17 6 360 353 359 359 357 358 353 352 352 354 351 347 342 336 329 323 322
194 261 196 149 102 44 167 162 102 198 242 232 244 236 221 190 190 190 182 172 110 39 18 4 357 4 357 356 353 359 3 359 357 357 360 0 2 3 358 351 344 337 333 331
144 161 194 120 200 171 138 199 139 155 184 225 248 250 230 189 190 190 189 156 155 139 356 353 357 360 358 353 359 5 8 9 9 11 11 11 14 12 10 9 4 0 354 347
195 179 231 217 144 167 181 214 172 188 217 223 168 267 151 162 181 181 172 157 151 139 9 357 354 355 1 3 10 8 11 16 16 16 20 25 25 28 28 24 20 17 15 10
175 216 267 328 352 357 212 208 217 201 127 222 162 247 166 174 171 178 160 150 144 140 5 347 359 5 10 9 18 21 24 27 27 28 31 35 34 36 38 37 33 32 31 27
155 183 185 237 184 137 200 223 224 214 234 213 215 153 186 189 178 153 142 153 156 139 66 6 25 19 19 19 23 27 30 30 33 37 38 39 39 37 37 35 40 43 43 41
161 237 208 233 200 182 220 231 218 219 233 219 198 208 190 196 166 156 149 150 150 135 78 56 47 41 37 39 40 39 42 45 43 43 41 40 37 37 37 37 40 43 47 48
202 226 163 265 221 224 242 234 220 233 237 246 247 211 186 134 137 142 153 159 150 138 105 82 64 46 48 40 42 42 41 44 49 48 45 41 39 38 38 38 39 38 40 44
171 161 160 249 185 211 257 246 222 194 220 231 221 202 141 147 155 156 158 163 163 156 152 123 83 66 59 46 36 39 40 42 45 45 40 38 35 37 37 35 36 37 39 40
159 172 182 222 133 234 259 313 259 225 167 173 96 154 160 144 131 148 174 171 166 164 148 142 125 91 77 68 51 46 37 41 45 44 43 45 41 42 41 38 39 40 39 38
150 152 187 196 214 316 245 221 166 174 245 162 140 128 124 119 110 118 163 169 166 172 155 151 127 107 96 74 56 47 51 38 42 45 44 43 43 39 38 40 39 40 41 38
126 143 179 154 183 223 243 109 130 77 279 174 150 151 146 139 172 183 174 175 159 158 154 147 137 145 115 95 93 75 64 55 49 45 46 43 44 41 42 43 43 41 42 41
155 170 199 163 214 283 219 153 130 116 247 157 160 158 158 168 179 161 164 161 162 158 156 158 159 164 140 98 83 96 74 60 51 51 53 51 47 45 43 38 37 38 39 38
175 161 184 155 181 271 156 119 182 188 121 152 159 162 159 145 140 152 157 155 161 161 160 162 173 164 144 130 96 90 82 67 61 54 50 47 42 40 38 37 37 36 35 34
206 171 178 179 204 259 208 126 171 154 155 162 170 170 170 153 152 156 156 160 162 164 162 162 166 161 157 142 116 97 87 83 65 55 49 41 37 36 33 34 35 35 32 31
218 161 129 101 193 164 163 152 160 166 168 170 177 176 177 164 164 160 160 164 167 167 164 161 158 151 142 135 123 104 90 75 61 51 45 40 36 34 35 36 35 34 34 30
195 140 138 108 136 124 193 189 166 157 164 164 167 178 175 167 162 162 162 166 167 163 159 154 154 145 131 123 113 99 83 63 53 46 42 39 39 40 37 35 37 37 39 36
191 164 172 213 188 162 182 182 173 163 161 160 156 157 164 170 161 163 161 163 163 160 159 156 151 143 127 114 101 92 75 56 46 42 43 42 40 37 36 36 36 38 37 37